Starlink 30556

operational
NORAD ID: 58031 Int'l Des: 2023-156 Owner: SPXS Country: US Constellation: starlink
LEOCIRCULAR

About Starlink 30556

Description loading...

Live Position

Loading 3D Globe...

Upcoming Passes

Altitude History

Altitude vs Time

uPlot chart will show altitude changes over time

Two-Line Element Set

1 58031U 23156D 25351.60850269 .00000079 00000-0 14808-4 0 9997
2 58031 53.1605 109.6557 0001015 77.0400 283.0714 15.30191662123596
Epoch: Dec 17, 2025 • Age: 7 hours

Current Status

Altitude 475.9 km
Velocity 7.63 km/s
Sub-Earth Point 3.33°N, 125.54°W
Launch Date Oct 9, 2023
Age 2.1 years
Type internet

Technical Details

Classification Payload
Mass 730.00 kg
Dry Mass 700.00 kg
Total Mass 730.00 kg
Length 0.30 m
Diameter 4.10 m
Span 29.00 m
Shape Box + pan
Manufacturer SPXS
Bus Type Starlink V2M
Phase Status In Orbit
Owner/State SPXS/US

Large Constellations

Loading constellations...